Year,Month,Day,Hour,Minute,Value (Times are PST for temperature in C)
2016,10,14,00,00,12.70
2016,10,14,00,01,12.70
2016,10,14,00,02,12.70
2016,10,14,00,03,12.60
2016,10,14,00,04,12.60
2016,10,14,00,05,12.60
2016,10,14,00,06,12.60
2016,10,14,00,07,12.50
2016,10,14,00,08,12.50
2016,10,14,00,09,12.40
2016,10,14,00,10,12.40
2016,10,14,00,11,12.40
2016,10,14,00,12,12.40
2016,10,14,00,13,12.40
2016,10,14,00,14,12.40
2016,10,14,00,15,12.30
2016,10,14,00,16,12.30
2016,10,14,00,17,12.20
2016,10,14,00,18,12.20
2016,10,14,00,19,12.10
2016,10,14,00,20,12.10
2016,10,14,00,21,12.10
2016,10,14,00,22,12.00
2016,10,14,00,23,12.00
2016,10,14,00,24,11.90
2016,10,14,00,25,11.90
2016,10,14,00,26,11.90
2016,10,14,00,27,11.90
2016,10,14,00,28,11.80
2016,10,14,00,29,11.80
2016,10,14,00,30,11.80
2016,10,14,00,31,11.80
2016,10,14,00,32,11.80
2016,10,14,00,33,11.70
2016,10,14,00,34,11.70
2016,10,14,00,35,11.70
2016,10,14,00,36,11.70
2016,10,14,00,37,11.70
2016,10,14,00,38,11.70
2016,10,14,00,39,11.70
2016,10,14,00,40,11.80
2016,10,14,00,41,11.80
2016,10,14,00,42,11.90
2016,10,14,00,43,12.10
2016,10,14,00,44,12.20
2016,10,14,00,45,12.30
2016,10,14,00,46,12.30
2016,10,14,00,47,12.40
2016,10,14,00,48,12.40
2016,10,14,00,49,12.40
2016,10,14,00,50,12.50
2016,10,14,00,51,12.50
2016,10,14,00,52,12.50
2016,10,14,00,53,12.50
2016,10,14,00,54,12.60
2016,10,14,00,55,12.60
2016,10,14,00,56,12.70
2016,10,14,00,57,12.70
2016,10,14,00,58,12.70
2016,10,14,00,59,12.70
2016,10,14,01,00,12.70
2016,10,14,01,01,12.70
2016,10,14,01,02,12.70
2016,10,14,01,03,12.80
2016,10,14,01,04,12.80
2016,10,14,01,05,12.80
2016,10,14,01,06,12.90
2016,10,14,01,07,13.00
2016,10,14,01,08,13.10
2016,10,14,01,09,13.10
2016,10,14,01,10,13.10
2016,10,14,01,11,13.10
2016,10,14,01,12,13.20
2016,10,14,01,13,13.20
2016,10,14,01,14,13.30
2016,10,14,01,15,13.30
2016,10,14,01,16,13.30
2016,10,14,01,17,13.30
2016,10,14,01,18,13.30
2016,10,14,01,19,13.40
2016,10,14,01,20,13.40
2016,10,14,01,21,13.40
2016,10,14,01,22,13.50
2016,10,14,01,23,13.50
2016,10,14,01,24,13.50
2016,10,14,01,25,13.50
2016,10,14,01,26,13.50
2016,10,14,01,27,13.40
2016,10,14,01,28,13.50
2016,10,14,01,29,13.60
2016,10,14,01,30,13.60
2016,10,14,01,31,13.60
2016,10,14,01,32,13.60
2016,10,14,01,33,13.60
2016,10,14,01,34,13.60
2016,10,14,01,35,13.60
2016,10,14,01,36,13.70
2016,10,14,01,37,13.70
2016,10,14,01,38,13.80
2016,10,14,01,39,13.80
2016,10,14,01,40,13.80
2016,10,14,01,41,13.80
2016,10,14,01,42,13.80
2016,10,14,01,43,13.80
2016,10,14,01,44,13.80
2016,10,14,01,45,13.90
2016,10,14,01,46,13.90
2016,10,14,01,47,13.90
2016,10,14,01,48,13.90
2016,10,14,01,49,13.90
2016,10,14,01,50,13.90
2016,10,14,01,51,13.90
2016,10,14,01,52,13.90
2016,10,14,01,53,13.90
2016,10,14,01,54,14.00
2016,10,14,01,55,14.00
2016,10,14,01,56,14.00
2016,10,14,01,57,14.00
2016,10,14,01,58,14.00
2016,10,14,01,59,14.00
2016,10,14,02,00,14.00
2016,10,14,02,01,14.10
2016,10,14,02,02,14.10
2016,10,14,02,03,14.10
2016,10,14,02,04,14.10
2016,10,14,02,05,14.10
2016,10,14,02,06,14.10
2016,10,14,02,07,14.10
2016,10,14,02,08,14.10
2016,10,14,02,09,14.10
2016,10,14,02,10,14.00
2016,10,14,02,11,14.00
2016,10,14,02,12,14.00
2016,10,14,02,13,14.00
2016,10,14,02,14,13.90
2016,10,14,02,15,14.00
2016,10,14,02,16,14.00
2016,10,14,02,17,14.10
2016,10,14,02,18,14.10
2016,10,14,02,19,14.10
2016,10,14,02,20,14.10
2016,10,14,02,21,14.10
2016,10,14,02,22,14.10
2016,10,14,02,23,14.10
2016,10,14,02,24,14.20
2016,10,14,02,25,14.20
2016,10,14,02,26,14.20
2016,10,14,02,27,14.20
2016,10,14,02,28,14.20
2016,10,14,02,29,14.20
2016,10,14,02,30,14.20
2016,10,14,02,31,14.20
2016,10,14,02,32,14.20
2016,10,14,02,33,14.10
2016,10,14,02,34,14.10
2016,10,14,02,35,14.00
2016,10,14,02,36,13.90
2016,10,14,02,37,13.90
2016,10,14,02,38,13.90
2016,10,14,02,39,13.90
2016,10,14,02,40,13.80
2016,10,14,02,41,13.70
2016,10,14,02,42,13.60
2016,10,14,02,43,13.50
2016,10,14,02,44,13.40
2016,10,14,02,45,13.30
2016,10,14,02,46,13.20
2016,10,14,02,47,13.20
2016,10,14,02,48,13.20
2016,10,14,02,49,13.10
2016,10,14,02,50,13.10
2016,10,14,02,51,13.10
2016,10,14,02,52,13.10
2016,10,14,02,53,13.10
2016,10,14,02,54,13.10
2016,10,14,02,55,13.10
2016,10,14,02,56,13.10
2016,10,14,02,57,13.10
2016,10,14,02,58,13.10
2016,10,14,02,59,13.10
2016,10,14,03,00,13.10
2016,10,14,03,01,13.10
2016,10,14,03,02,13.10
2016,10,14,03,03,13.10
2016,10,14,03,04,13.10
2016,10,14,03,05,13.10
2016,10,14,03,06,13.10
2016,10,14,03,07,13.10
2016,10,14,03,08,13.10
2016,10,14,03,09,13.10
2016,10,14,03,10,13.10
2016,10,14,03,11,13.20
2016,10,14,03,12,13.20
2016,10,14,03,13,13.20
2016,10,14,03,14,13.20
2016,10,14,03,15,13.20
2016,10,14,03,16,13.20
2016,10,14,03,17,13.30
2016,10,14,03,18,13.30
2016,10,14,03,19,13.30
2016,10,14,03,20,13.40
2016,10,14,03,21,13.50
2016,10,14,03,22,13.50
2016,10,14,03,23,13.60
2016,10,14,03,24,13.60
2016,10,14,03,25,13.60
2016,10,14,03,26,13.50
2016,10,14,03,27,13.50
2016,10,14,03,28,13.50
2016,10,14,03,29,13.40
2016,10,14,03,30,13.40
2016,10,14,03,31,13.30
2016,10,14,03,32,13.30
2016,10,14,03,33,13.30
2016,10,14,03,34,13.30
2016,10,14,03,35,13.30
2016,10,14,03,36,13.30
2016,10,14,03,37,13.40
2016,10,14,03,38,13.40
2016,10,14,03,39,13.40
2016,10,14,03,40,13.40
2016,10,14,03,41,13.30
2016,10,14,03,42,13.30
2016,10,14,03,43,13.20
2016,10,14,03,44,13.20
2016,10,14,03,45,13.10
2016,10,14,03,46,13.10
2016,10,14,03,47,13.00
2016,10,14,03,48,13.00
2016,10,14,03,49,12.90
2016,10,14,03,50,12.90
2016,10,14,03,51,12.80
2016,10,14,03,52,12.80
2016,10,14,03,53,12.80
2016,10,14,03,54,12.70
2016,10,14,03,55,12.70
2016,10,14,03,56,12.60
2016,10,14,03,57,12.60
2016,10,14,03,58,12.50
2016,10,14,03,59,12.50
2016,10,14,04,00,12.50
2016,10,14,04,01,12.50
2016,10,14,04,02,12.50
2016,10,14,04,03,12.50
2016,10,14,04,04,12.50
2016,10,14,04,05,12.50
2016,10,14,04,06,12.50
2016,10,14,04,07,12.60
2016,10,14,04,08,12.60
2016,10,14,04,09,12.60
2016,10,14,04,10,12.70
2016,10,14,04,11,12.70
2016,10,14,04,12,12.70
2016,10,14,04,13,12.70
2016,10,14,04,14,12.70
2016,10,14,04,15,12.80
2016,10,14,04,16,12.80
2016,10,14,04,17,12.80
2016,10,14,04,18,12.80
2016,10,14,04,19,12.80
2016,10,14,04,20,12.80
2016,10,14,04,21,12.80
2016,10,14,04,22,12.80
2016,10,14,04,23,12.80
2016,10,14,04,24,12.80
2016,10,14,04,25,12.80
2016,10,14,04,26,12.80
2016,10,14,04,27,12.90
2016,10,14,04,28,12.90
2016,10,14,04,29,12.90
2016,10,14,04,30,12.90
2016,10,14,04,31,12.90
2016,10,14,04,32,12.90
2016,10,14,04,33,12.90
2016,10,14,04,34,12.90
2016,10,14,04,35,12.90
2016,10,14,04,36,12.90
2016,10,14,04,37,12.90
2016,10,14,04,38,12.80
2016,10,14,04,39,12.80
2016,10,14,04,40,12.80
2016,10,14,04,41,12.80
2016,10,14,04,42,12.70
2016,10,14,04,43,12.70
2016,10,14,04,44,12.70
2016,10,14,04,45,12.70
2016,10,14,04,46,12.70
2016,10,14,04,47,12.60
2016,10,14,04,48,12.60
2016,10,14,04,49,12.60
2016,10,14,04,50,12.60
2016,10,14,04,51,12.50
2016,10,14,04,52,12.50
2016,10,14,04,53,12.40
2016,10,14,04,54,12.40
2016,10,14,04,55,12.40
2016,10,14,04,56,12.40
2016,10,14,04,57,12.40
2016,10,14,04,58,12.40
2016,10,14,04,59,12.30
2016,10,14,05,00,12.30
2016,10,14,05,01,12.20
2016,10,14,05,02,12.20
2016,10,14,05,03,12.10
2016,10,14,05,04,12.10
2016,10,14,05,05,12.10
2016,10,14,05,06,12.10
2016,10,14,05,07,12.10
2016,10,14,05,08,12.10
2016,10,14,05,09,12.00
2016,10,14,05,10,12.00
2016,10,14,05,11,11.90
2016,10,14,05,12,11.80
2016,10,14,05,13,11.80
2016,10,14,05,14,11.70
2016,10,14,05,15,11.70
2016,10,14,05,16,11.60
2016,10,14,05,17,11.60
2016,10,14,05,18,11.50
2016,10,14,05,19,11.40
2016,10,14,05,20,11.40
2016,10,14,05,21,11.30
2016,10,14,05,22,11.30
2016,10,14,05,23,11.20
2016,10,14,05,24,11.20
2016,10,14,05,25,11.10
2016,10,14,05,26,11.10
2016,10,14,05,27,11.10
2016,10,14,05,28,11.10
2016,10,14,05,29,11.10
2016,10,14,05,30,11.00
2016,10,14,05,31,11.00
2016,10,14,05,32,11.00
2016,10,14,05,33,11.00
2016,10,14,05,34,11.00
2016,10,14,05,35,11.00
2016,10,14,05,36,10.90
2016,10,14,05,37,10.90
2016,10,14,05,38,10.90
2016,10,14,05,39,10.90
2016,10,14,05,40,10.90
2016,10,14,05,41,10.90
2016,10,14,05,42,10.80
2016,10,14,05,43,10.80
2016,10,14,05,44,10.80
2016,10,14,05,45,10.80
2016,10,14,05,46,10.80
2016,10,14,05,47,10.80
2016,10,14,05,48,10.80
2016,10,14,05,49,10.80
2016,10,14,05,50,10.80
2016,10,14,05,51,10.70
2016,10,14,05,52,10.70
2016,10,14,05,53,10.70
2016,10,14,05,54,10.60
2016,10,14,05,55,10.60
2016,10,14,05,56,10.60
2016,10,14,05,57,10.60
2016,10,14,05,58,10.50
2016,10,14,05,59,10.50
2016,10,14,06,00,10.40
2016,10,14,06,01,10.40
2016,10,14,06,02,10.40
2016,10,14,06,03,10.40
2016,10,14,06,04,10.30
2016,10,14,06,05,10.30
2016,10,14,06,06,10.30
2016,10,14,06,07,10.30
2016,10,14,06,08,10.30
2016,10,14,06,09,10.30
2016,10,14,06,10,10.20
2016,10,14,06,11,10.20
2016,10,14,06,12,10.20
2016,10,14,06,13,10.20
2016,10,14,06,14,10.20
2016,10,14,06,15,10.20
2016,10,14,06,16,10.20
2016,10,14,06,17,10.20
2016,10,14,06,18,10.10
2016,10,14,06,19,10.10
2016,10,14,06,20,10.10
2016,10,14,06,21,10.10
2016,10,14,06,22,10.10
2016,10,14,06,23,10.10
2016,10,14,06,24,10.10
2016,10,14,06,25,10.10
2016,10,14,06,26,10.10
2016,10,14,06,27,10.10
2016,10,14,06,28,10.00
2016,10,14,06,29,10.00
2016,10,14,06,30,10.00
2016,10,14,06,31,10.00
2016,10,14,06,32,10.00
2016,10,14,06,33,10.00
2016,10,14,06,34,10.00
2016,10,14,06,35,10.00
2016,10,14,06,36,9.90
2016,10,14,06,37,9.90
2016,10,14,06,38,9.90
2016,10,14,06,39,9.90
2016,10,14,06,40,9.90
2016,10,14,06,41,9.90
2016,10,14,06,42,9.90
2016,10,14,06,43,9.90
2016,10,14,06,44,9.90
2016,10,14,06,45,10.00
2016,10,14,06,46,9.90
2016,10,14,06,47,9.90
2016,10,14,06,48,10.00
2016,10,14,06,49,10.00
2016,10,14,06,50,10.00
2016,10,14,06,51,10.00
2016,10,14,06,52,9.90
2016,10,14,06,53,9.90
2016,10,14,06,54,10.00
2016,10,14,06,55,10.00
2016,10,14,06,56,10.00
2016,10,14,06,57,10.00
2016,10,14,06,58,10.00
2016,10,14,06,59,10.00
2016,10,14,07,00,10.00
2016,10,14,07,01,10.00
2016,10,14,07,02,10.10
2016,10,14,07,03,10.10
2016,10,14,07,04,10.10
2016,10,14,07,05,10.10
2016,10,14,07,06,10.10
2016,10,14,07,07,10.10
2016,10,14,07,08,10.20
2016,10,14,07,09,10.20
2016,10,14,07,10,10.30
2016,10,14,07,11,10.30
2016,10,14,07,12,10.30
2016,10,14,07,13,10.30
2016,10,14,07,14,10.30
2016,10,14,07,15,10.30
2016,10,14,07,16,10.30
2016,10,14,07,17,10.30
2016,10,14,07,18,10.30
2016,10,14,07,19,10.30
2016,10,14,07,20,10.30
2016,10,14,07,21,10.30
2016,10,14,07,22,10.30
2016,10,14,07,23,10.30
2016,10,14,07,24,10.40
2016,10,14,07,25,10.40
2016,10,14,07,26,10.40
2016,10,14,07,27,10.40
2016,10,14,07,28,10.50
2016,10,14,07,29,10.50
2016,10,14,07,30,10.50
2016,10,14,07,31,10.50
2016,10,14,07,32,10.50
2016,10,14,07,33,10.40
2016,10,14,07,34,10.40
2016,10,14,07,35,10.40
2016,10,14,07,36,10.40
2016,10,14,07,37,10.40
2016,10,14,07,38,10.40
2016,10,14,07,39,10.40
2016,10,14,07,40,10.40
2016,10,14,07,41,10.40
2016,10,14,07,42,10.40
2016,10,14,07,43,10.40
2016,10,14,07,44,10.40
2016,10,14,07,45,10.30
2016,10,14,07,46,10.30
2016,10,14,07,47,10.30
2016,10,14,07,48,10.30
2016,10,14,07,49,10.30
2016,10,14,07,50,10.30
2016,10,14,07,51,10.30
2016,10,14,07,52,10.30
2016,10,14,07,53,10.30
2016,10,14,07,54,10.30
2016,10,14,07,55,10.30
2016,10,14,07,56,10.30
2016,10,14,07,57,10.40
2016,10,14,07,58,10.40
2016,10,14,07,59,10.40
2016,10,14,08,00,10.40
2016,10,14,08,01,10.40
2016,10,14,08,02,10.50
2016,10,14,08,03,10.50
2016,10,14,08,04,10.50
2016,10,14,08,05,10.50
2016,10,14,08,06,10.50
2016,10,14,08,07,10.50
2016,10,14,08,08,10.50
2016,10,14,08,09,10.50
2016,10,14,08,10,10.40
2016,10,14,08,11,10.40
2016,10,14,08,12,10.40
2016,10,14,08,13,10.40
2016,10,14,08,14,10.40
2016,10,14,08,15,10.40
2016,10,14,08,16,10.40
2016,10,14,08,17,10.30
2016,10,14,08,18,10.30
2016,10,14,08,19,10.30
2016,10,14,08,20,10.30
2016,10,14,08,21,10.30
2016,10,14,08,22,10.30
2016,10,14,08,23,10.30
2016,10,14,08,24,10.30
2016,10,14,08,25,10.30
2016,10,14,08,26,10.30
2016,10,14,08,27,10.30
2016,10,14,08,28,10.30
2016,10,14,08,29,10.40
2016,10,14,08,30,10.40
2016,10,14,08,31,10.40
2016,10,14,08,32,10.40
2016,10,14,08,33,10.40
2016,10,14,08,34,10.40
2016,10,14,08,35,10.50
2016,10,14,08,36,10.50
2016,10,14,08,37,10.50
2016,10,14,08,38,10.50
2016,10,14,08,39,10.50
2016,10,14,08,40,10.50
2016,10,14,08,41,10.50
2016,10,14,08,42,10.60
2016,10,14,08,43,10.60
2016,10,14,08,44,10.60
2016,10,14,08,45,10.60
2016,10,14,08,46,10.60
2016,10,14,08,47,10.70
2016,10,14,08,48,10.70
2016,10,14,08,49,10.70
2016,10,14,08,50,10.70
2016,10,14,08,51,10.70
2016,10,14,08,52,10.70
2016,10,14,08,53,10.70
2016,10,14,08,54,10.70
2016,10,14,08,55,10.70
2016,10,14,08,56,10.70
2016,10,14,08,57,10.70
2016,10,14,08,58,10.70
2016,10,14,08,59,10.70
2016,10,14,09,00,10.70
2016,10,14,09,01,10.80
2016,10,14,09,02,10.80
2016,10,14,09,03,10.80
2016,10,14,09,04,10.80
2016,10,14,09,05,10.80
2016,10,14,09,06,10.80
2016,10,14,09,07,10.80
2016,10,14,09,08,10.80
2016,10,14,09,09,10.80
2016,10,14,09,10,10.80
2016,10,14,09,11,10.80
2016,10,14,09,12,10.80
2016,10,14,09,13,10.80
2016,10,14,09,14,10.80
2016,10,14,09,15,10.80
2016,10,14,09,16,10.80
2016,10,14,09,17,10.80
2016,10,14,09,18,10.80
2016,10,14,09,19,10.80
2016,10,14,09,20,10.80
2016,10,14,09,21,10.80
2016,10,14,09,22,10.80
2016,10,14,09,23,10.80
2016,10,14,09,24,10.80
2016,10,14,09,25,10.80
2016,10,14,09,26,10.80
2016,10,14,09,27,10.80
2016,10,14,09,28,10.80
2016,10,14,09,29,10.80
2016,10,14,09,30,10.80
2016,10,14,09,31,10.80
2016,10,14,09,32,10.80
2016,10,14,09,33,10.80
2016,10,14,09,34,10.70
2016,10,14,09,35,10.70
2016,10,14,09,36,10.70
2016,10,14,09,37,10.70
2016,10,14,09,38,10.70
2016,10,14,09,39,10.70
2016,10,14,09,40,10.70
2016,10,14,09,41,10.70
2016,10,14,09,42,10.70
2016,10,14,09,43,10.70
2016,10,14,09,44,10.70
2016,10,14,09,45,10.70
2016,10,14,09,46,10.70
2016,10,14,09,47,10.70
2016,10,14,09,48,10.70
2016,10,14,09,49,10.60
2016,10,14,09,50,10.70
2016,10,14,09,51,10.60
2016,10,14,09,52,10.60
2016,10,14,09,53,10.60
2016,10,14,09,54,10.60
2016,10,14,09,55,10.60
2016,10,14,09,56,10.60
2016,10,14,09,57,10.60
2016,10,14,09,58,10.60
2016,10,14,09,59,10.70
2016,10,14,10,00,10.70
2016,10,14,10,01,10.70
2016,10,14,10,02,10.70
2016,10,14,10,03,10.70
2016,10,14,10,04,10.70
2016,10,14,10,05,10.70
2016,10,14,10,06,10.70
2016,10,14,10,07,10.70
2016,10,14,10,08,10.70
2016,10,14,10,09,10.70
2016,10,14,10,10,10.70
2016,10,14,10,11,10.70
2016,10,14,10,12,10.70
2016,10,14,10,13,10.70
2016,10,14,10,14,10.70
2016,10,14,10,15,10.70
2016,10,14,10,16,10.70
2016,10,14,10,17,10.70
2016,10,14,10,18,10.70
2016,10,14,10,19,10.70
2016,10,14,10,20,10.60
2016,10,14,10,21,10.60
2016,10,14,10,22,10.60
2016,10,14,10,23,10.60
2016,10,14,10,24,10.60
2016,10,14,10,25,10.60
2016,10,14,10,26,10.60
2016,10,14,10,27,10.60
2016,10,14,10,28,10.60
2016,10,14,10,29,10.60
2016,10,14,10,30,10.60
2016,10,14,10,31,10.60
2016,10,14,10,32,10.60
2016,10,14,10,33,10.60
2016,10,14,10,34,10.60
2016,10,14,10,35,10.60
2016,10,14,10,36,10.60
2016,10,14,10,37,10.50
2016,10,14,10,38,10.50
2016,10,14,10,39,10.60
2016,10,14,10,40,10.60
2016,10,14,10,41,10.60
2016,10,14,10,42,10.60
2016,10,14,10,43,10.60
2016,10,14,10,44,10.60
2016,10,14,10,45,10.60
2016,10,14,10,46,10.60
2016,10,14,10,47,10.60
2016,10,14,10,48,10.60
2016,10,14,10,49,10.60
2016,10,14,10,50,10.60
2016,10,14,10,51,10.60
2016,10,14,10,52,10.60
2016,10,14,10,53,10.60
2016,10,14,10,54,10.60
2016,10,14,10,55,10.60
2016,10,14,10,56,10.60
2016,10,14,10,57,10.60
2016,10,14,10,58,10.60
2016,10,14,10,59,10.60
2016,10,14,11,00,10.50
2016,10,14,11,01,10.50
2016,10,14,11,02,10.50
2016,10,14,11,03,10.50
2016,10,14,11,04,10.50
2016,10,14,11,05,10.50
2016,10,14,11,06,10.50
2016,10,14,11,07,10.50
2016,10,14,11,08,10.50
2016,10,14,11,09,10.50
2016,10,14,11,10,10.50
2016,10,14,11,11,10.50
2016,10,14,11,12,10.50
2016,10,14,11,13,10.40
2016,10,14,11,14,10.40
2016,10,14,11,15,10.40
2016,10,14,11,16,10.50
2016,10,14,11,17,10.40
2016,10,14,11,18,10.40
2016,10,14,11,19,10.40
2016,10,14,11,20,10.40
2016,10,14,11,21,10.40
2016,10,14,11,22,10.40
2016,10,14,11,23,10.40
2016,10,14,11,24,10.40
2016,10,14,11,25,10.40
2016,10,14,11,26,10.40
2016,10,14,11,27,10.40
2016,10,14,11,28,10.40
2016,10,14,11,29,10.40
2016,10,14,11,30,10.40
2016,10,14,11,31,10.40
2016,10,14,11,32,10.40
2016,10,14,11,33,10.40
2016,10,14,11,34,10.40
2016,10,14,11,35,10.40
2016,10,14,11,36,10.40
2016,10,14,11,37,10.40
2016,10,14,11,38,10.40
2016,10,14,11,39,10.40
2016,10,14,11,40,10.40
2016,10,14,11,41,10.40
2016,10,14,11,42,10.40
2016,10,14,11,43,10.40
2016,10,14,11,44,10.40
2016,10,14,11,45,10.40
2016,10,14,11,46,10.40
2016,10,14,11,47,10.40
2016,10,14,11,48,10.40
2016,10,14,11,49,10.40
2016,10,14,11,50,10.40
2016,10,14,11,51,10.40
2016,10,14,11,52,10.40
2016,10,14,11,53,10.40
2016,10,14,11,54,10.40
2016,10,14,11,55,10.40
2016,10,14,11,56,10.40
2016,10,14,11,57,10.50
2016,10,14,11,58,10.50
2016,10,14,11,59,10.60
2016,10,14,12,00,10.60
2016,10,14,12,01,10.60
2016,10,14,12,02,10.60
2016,10,14,12,03,10.60
2016,10,14,12,04,10.50
2016,10,14,12,05,10.50
2016,10,14,12,06,10.50
2016,10,14,12,07,10.40
2016,10,14,12,08,10.40
2016,10,14,12,09,10.40
2016,10,14,12,10,10.40
2016,10,14,12,11,10.40
2016,10,14,12,12,10.40
2016,10,14,12,13,10.40
2016,10,14,12,14,10.40
2016,10,14,12,15,10.40
2016,10,14,12,16,10.40
2016,10,14,12,17,10.40
2016,10,14,12,18,10.40
2016,10,14,12,19,10.40
2016,10,14,12,20,10.40
2016,10,14,12,21,10.40
2016,10,14,12,22,10.40
2016,10,14,12,23,10.40
2016,10,14,12,24,10.40
2016,10,14,12,25,10.40
2016,10,14,12,26,10.40
2016,10,14,12,27,10.40
2016,10,14,12,28,10.40
2016,10,14,12,29,10.40
2016,10,14,12,30,10.40
2016,10,14,12,31,10.40
2016,10,14,12,32,10.40
2016,10,14,12,33,10.40
2016,10,14,12,34,10.40
2016,10,14,12,35,10.40
2016,10,14,12,36,10.40
2016,10,14,12,37,10.40
2016,10,14,12,38,10.50
2016,10,14,12,39,10.60
2016,10,14,12,40,10.60
2016,10,14,12,41,10.70
2016,10,14,12,42,10.70
2016,10,14,12,43,10.70
2016,10,14,12,44,10.70
2016,10,14,12,45,10.70
2016,10,14,12,46,10.70
2016,10,14,12,47,10.70
2016,10,14,12,48,10.70
2016,10,14,12,49,10.70
2016,10,14,12,50,10.70
2016,10,14,12,51,10.70
2016,10,14,12,52,10.70
2016,10,14,12,53,10.60
2016,10,14,12,54,10.60
2016,10,14,12,55,10.60
2016,10,14,12,56,10.50
2016,10,14,12,57,10.50
2016,10,14,12,58,10.40
2016,10,14,12,59,10.40
2016,10,14,13,00,10.30
2016,10,14,13,01,10.30
2016,10,14,13,02,10.30
2016,10,14,13,03,10.30
2016,10,14,13,04,10.20
2016,10,14,13,05,10.20
2016,10,14,13,06,10.20
2016,10,14,13,07,10.20
2016,10,14,13,08,10.20
2016,10,14,13,09,10.10
2016,10,14,13,10,10.10
2016,10,14,13,11,10.10
2016,10,14,13,12,10.10
2016,10,14,13,13,10.10
2016,10,14,13,14,10.10
2016,10,14,13,15,10.00
2016,10,14,13,16,10.00
2016,10,14,13,17,10.00
2016,10,14,13,18,10.00
2016,10,14,13,19,10.10
2016,10,14,13,20,10.10
2016,10,14,13,21,10.10
2016,10,14,13,22,10.10
2016,10,14,13,23,10.10
2016,10,14,13,24,10.10
2016,10,14,13,25,10.10
2016,10,14,13,26,10.20
2016,10,14,13,27,10.20
2016,10,14,13,28,10.20
2016,10,14,13,29,10.20
2016,10,14,13,30,10.20
2016,10,14,13,31,10.20
2016,10,14,13,32,10.30
2016,10,14,13,33,10.30
2016,10,14,13,34,10.30
2016,10,14,13,35,10.30
2016,10,14,13,36,10.30
2016,10,14,13,37,10.40
2016,10,14,13,38,10.40
2016,10,14,13,39,10.40
2016,10,14,13,40,10.40
2016,10,14,13,41,10.50
2016,10,14,13,42,10.50
2016,10,14,13,43,10.40
2016,10,14,13,44,10.40
2016,10,14,13,45,10.40
2016,10,14,13,46,10.40
2016,10,14,13,47,10.40
2016,10,14,13,48,10.40
2016,10,14,13,49,10.40
2016,10,14,13,50,10.40
2016,10,14,13,51,10.40
2016,10,14,13,52,10.40
2016,10,14,13,53,10.40
2016,10,14,13,54,10.40
2016,10,14,13,55,10.40
2016,10,14,13,56,10.30
2016,10,14,13,57,10.20
2016,10,14,13,58,10.20
2016,10,14,13,59,10.10
2016,10,14,14,00,10.10
2016,10,14,14,01,10.10
2016,10,14,14,02,10.10
2016,10,14,14,03,10.10
2016,10,14,14,04,10.00
2016,10,14,14,05,10.00
2016,10,14,14,06,10.00
2016,10,14,14,07,10.00
2016,10,14,14,08,10.00
2016,10,14,14,09,10.00
2016,10,14,14,10,9.90
2016,10,14,14,11,9.90
2016,10,14,14,12,9.90
2016,10,14,14,13,9.90
2016,10,14,14,14,9.90
2016,10,14,14,15,9.90
2016,10,14,14,16,9.90
2016,10,14,14,17,9.90
2016,10,14,14,18,9.90
2016,10,14,14,19,10.00
2016,10,14,14,20,10.00
2016,10,14,14,21,10.00
2016,10,14,14,22,10.00
2016,10,14,14,23,10.00
2016,10,14,14,24,10.10
2016,10,14,14,25,10.10
2016,10,14,14,26,10.10
2016,10,14,14,27,10.10
2016,10,14,14,28,10.20
2016,10,14,14,29,10.20
2016,10,14,14,30,10.20
2016,10,14,14,31,10.20
2016,10,14,14,32,10.20
2016,10,14,14,33,10.30
2016,10,14,14,34,10.30
2016,10,14,14,35,10.30
2016,10,14,14,36,10.30
2016,10,14,14,37,10.40
2016,10,14,14,38,10.40
2016,10,14,14,39,10.40
2016,10,14,14,40,10.50
2016,10,14,14,41,10.50
2016,10,14,14,42,10.60
2016,10,14,14,43,10.60
2016,10,14,14,44,10.60
2016,10,14,14,45,10.60
2016,10,14,14,46,10.60
2016,10,14,14,47,10.60
2016,10,14,14,48,10.70
2016,10,14,14,49,10.70
2016,10,14,14,50,10.70
2016,10,14,14,51,10.70
2016,10,14,14,52,10.70
2016,10,14,14,53,10.70
2016,10,14,14,54,10.70
2016,10,14,14,55,10.70
2016,10,14,14,56,10.70
2016,10,14,14,57,10.70
2016,10,14,14,58,10.70
2016,10,14,14,59,10.70
2016,10,14,15,00,10.70
2016,10,14,15,01,10.70
2016,10,14,15,02,10.70
2016,10,14,15,03,10.70
2016,10,14,15,04,10.70
2016,10,14,15,05,10.70
2016,10,14,15,06,10.70
2016,10,14,15,07,10.70
2016,10,14,15,08,10.70
2016,10,14,15,09,10.60
2016,10,14,15,10,10.60
2016,10,14,15,11,10.70
2016,10,14,15,12,10.70
2016,10,14,15,13,10.70
2016,10,14,15,14,10.70
2016,10,14,15,15,10.70
2016,10,14,15,16,10.70
2016,10,14,15,17,10.70
2016,10,14,15,18,10.70
2016,10,14,15,19,10.70
2016,10,14,15,20,10.70
2016,10,14,15,21,10.70
2016,10,14,15,22,10.70
2016,10,14,15,23,10.70
2016,10,14,15,24,10.70
2016,10,14,15,25,10.70
2016,10,14,15,26,10.70
2016,10,14,15,27,10.70
2016,10,14,15,28,10.70
2016,10,14,15,29,10.70
2016,10,14,15,30,10.70
2016,10,14,15,31,10.70
2016,10,14,15,32,10.70
2016,10,14,15,33,10.70
2016,10,14,15,34,10.70
2016,10,14,15,35,10.70
2016,10,14,15,36,10.70
2016,10,14,15,37,10.70
2016,10,14,15,38,10.70
2016,10,14,15,39,10.70
2016,10,14,15,40,10.70
2016,10,14,15,41,10.70
2016,10,14,15,42,10.70
2016,10,14,15,43,10.70
2016,10,14,15,44,10.70
2016,10,14,15,45,10.80
2016,10,14,15,46,10.80
2016,10,14,15,47,10.80
2016,10,14,15,48,10.80
2016,10,14,15,49,10.80
2016,10,14,15,50,10.80
2016,10,14,15,51,10.80
2016,10,14,15,52,10.80
2016,10,14,15,53,10.80
2016,10,14,15,54,10.80
2016,10,14,15,55,10.80
2016,10,14,15,56,10.80
2016,10,14,15,57,10.80
2016,10,14,15,58,10.80
2016,10,14,15,59,10.80
2016,10,14,16,00,10.80
2016,10,14,16,01,10.80
2016,10,14,16,02,10.80
2016,10,14,16,03,10.70
2016,10,14,16,04,10.80
2016,10,14,16,05,10.80
2016,10,14,16,06,10.80
2016,10,14,16,07,10.80
2016,10,14,16,08,10.80
2016,10,14,16,09,10.80
2016,10,14,16,10,10.80
2016,10,14,16,11,10.80
2016,10,14,16,12,10.80
2016,10,14,16,13,10.80
2016,10,14,16,14,10.80
2016,10,14,16,15,10.80
2016,10,14,16,16,10.80
2016,10,14,16,17,10.80
2016,10,14,16,18,10.80
2016,10,14,16,19,10.80
2016,10,14,16,20,10.80
2016,10,14,16,21,10.80
2016,10,14,16,22,10.80
2016,10,14,16,23,10.80
2016,10,14,16,24,10.80
2016,10,14,16,25,10.80
2016,10,14,16,26,10.80
2016,10,14,16,27,10.80
2016,10,14,16,28,10.80
2016,10,14,16,29,10.80
2016,10,14,16,30,10.80
2016,10,14,16,31,10.80
2016,10,14,16,32,10.80
2016,10,14,16,33,10.80
2016,10,14,16,34,10.80
2016,10,14,16,35,10.80
2016,10,14,16,36,10.80
2016,10,14,16,37,10.80
2016,10,14,16,38,10.80
2016,10,14,16,39,10.80
2016,10,14,16,40,10.80
2016,10,14,16,41,10.80
2016,10,14,16,42,10.80
2016,10,14,16,43,10.90
2016,10,14,16,44,11.00
2016,10,14,16,45,11.00
2016,10,14,16,46,11.00
2016,10,14,16,47,11.00
2016,10,14,16,48,11.00
2016,10,14,16,49,11.00
2016,10,14,16,50,11.00
2016,10,14,16,51,11.00
2016,10,14,16,52,11.00
2016,10,14,16,53,11.10
2016,10,14,16,54,11.10
2016,10,14,16,55,11.10
2016,10,14,16,56,11.10
2016,10,14,16,57,11.20
2016,10,14,16,58,11.20
2016,10,14,16,59,11.20
2016,10,14,17,00,11.30
2016,10,14,17,01,11.30
2016,10,14,17,02,11.40
2016,10,14,17,03,11.50
2016,10,14,17,04,11.60
2016,10,14,17,05,11.70
2016,10,14,17,06,11.70
2016,10,14,17,07,11.80
2016,10,14,17,08,11.90
2016,10,14,17,09,11.90
2016,10,14,17,10,12.00
2016,10,14,17,11,12.00
2016,10,14,17,12,12.10
2016,10,14,17,13,12.10
2016,10,14,17,14,12.20
2016,10,14,17,15,12.20
2016,10,14,17,16,12.20
2016,10,14,17,17,12.20
2016,10,14,17,18,12.30
2016,10,14,17,19,12.30
2016,10,14,17,20,12.30